Lid_Strength_Index
4 4 3 3 2 2 2 1 1 1 1 1 0 0 0 -0 -1 0 0 -0 0 1 0 0 -1 -1 -1 -1 -1 -1 -2 -1 -0
5 4 4 3 2 2 2 1 1 1 1 1 0 0 -0 -0 -0 -0 -0 -0 -1 -0 -1 0 -1 -1 -1 -1 -1 -1 -2 -0 -0
5 5 4 3 2 2 1 1 1 0 0 1 0 0 0 0 -0 -0 -0 -1 -1 -1 -0 -1 -1 -1 -1 -1 -1 -1 -1 -1 -0
6 5 4 3 2 2 1 1 1 1 1 1 1 0 -0 -0 -0 -0 -0 -0 -1 -1 -1 -1 -1 -1 -1 -1 -1 -1 -1 -0 -1
6 5 3 3 2 2 1 1 1 1 1 1 0 0 -0 0 -0 -0 -0 -0 -0 -1 -1 -1 -1 -1 -1 -1 -1 -1 -0 -0 -0
5 5 4 3 2 2 2 1 1 1 1 1 0 0 0 0 0 0 0 -0 -1 -1 -1 -1 -1 -1 -1 -0 -0 -1 -1 -0 -0
5 5 4 4 3 3 2 1 1 1 1 0 0 0 0 0 0 0 -0 -0 -0 -1 -1 -0 -1 -1 -1 -1 -0 -1 -1 -1 -0
6 6 5 4 3 3 3 2 1 1 1 0 0 0 1 0 -0 -0 -0 -0 -1 -1 -1 -1 -1 -0 -1 -1 -0 -0 -0 -0 -0
6 6 5 5 4 3 3 3 2 1 1 1 1 1 2 0 -0 -0 0 0 0 -0 -0 -0 -0 -0 -0 -0 0 2 1 1 -0
6 6 5 5 4 4 3 3 2 2 2 1 1 1 1 1 1 1 1 0 1 1 1 -0 0 0 -0 0 -0 4 3 3 -0
6 5 5 5 4 3 2 2 2 1 1 1 1 1 1 1 1 1 1 1 1 0 0 0 1 0 0 1 1 6 5 5 -0
4 4 4 4 3 3 2 2 2 2 2 1 1 1 1 1 1 1 1 1 1 1 0 1 0 0 0 1 1 6 7 5 -0
4 3 3 3 2 2 3 3 2 2 2 2 2 1 1 1 1 0 1 1 1 0 0 1 0 1 -0 2 4 7 8 5 2
3 3 3 2 2 3 3 4 2 2 2 2 1 1 1 1 1 1 0 0 1 1 2 4 6 6 7 7 7 7 8 8 3
3 3 3 2 3 2 2 3 4 3 3 2 1 1 1 1 1 1 1 1 1 2 3 6 7 7 8 7 7 9 9 8 8
3 3 3 2 2 2 2 1 2 5 5 3 2 2 3 2 3 2 1 1 2 2 2 4 5 6 6 6 6 7 8 8 8
3 3 2 2 2 3 2 2 2 3 4 4 4 5 5 5 6 5 4 3 2 1 2 2 2 3 5 6 7 7 7 7 6
3 2 2 2 2 2 2 2 2 2 4 3 5 6 6 6 7 7 8 9 8 6 8 7 4 3 4 5 7 10 13 11 8
2 2 2 2 2 2 2 2 2 2 1 2 4 5 5 5 5 6 4 4 6 13 12 12 12 12 7 7 11 13 14 15 14
3 2 2 2 1 2 2 2 2 1 0 2 3 4 4 5 6 6 6 4 4 5 8 12 12 12 11 11 10 13 13 14 14